This is the latest recevied weather packets stored in our database for station/object KD8PH. If no packets are shown the sender has not sent any weather packets the latest 1 day(s).
| Time | Temp. | Humidity | Pressure | Rain* | Wind** | Luminosity | Snow |
|---|---|---|---|---|---|---|---|
| 1778045135 | 22.22° C | 68% | 1010 hPa | 0 mm | 1.34 m/s, 248° | - | - |
| 1778044539 | 22.22° C | 68% | 1010 hPa | 0 mm | 3.13 m/s, 225° | - | - |
| 1778043939 | 22.22° C | 67% | 1010 hPa | 0 mm | 1.79 m/s, 248° | - | - |
| 1778043342 | 22.22° C | 67% | 1010 hPa | 0 mm | 0.89 m/s, 248° | - | - |
| 1778042735 | 22.22° C | 66% | 1009.9 hPa | 0 mm | 2.24 m/s, 225° | - | - |
| 1778042158 | 22.22° C | 66% | 1009.9 hPa | 0 mm | 2.24 m/s, 225° | - | - |
| 1778041536 | 22.22° C | 65% | 1010.1 hPa | 0 mm | 2.24 m/s, 225° | - | - |
| 1778040937 | 22.22° C | 65% | 1010.2 hPa | 0 mm | 2.24 m/s, 225° | - | - |
| 1778040338 | 22.22° C | 64% | 1010.3 hPa | 0 mm | 1.79 m/s, 225° | - | - |
| 1778039738 | 22.22° C | 63% | 1010.2 hPa | 0 mm | 1.34 m/s, 248° | - | - |
| 1778039146 | 22.22° C | 64% | 1010.1 hPa | 0 mm | 0.89 m/s, 225° | - | - |
| 1778038536 | 22.22° C | 63% | 1010.1 hPa | 0 mm | 1.34 m/s, 225° | - | - |
| 1778037937 | 22.22° C | 63% | 1010.1 hPa | 0 mm | 1.34 m/s, 225° | - | - |
| 1778037335 | 22.22° C | 63% | 1009.9 hPa | 0 mm | 1.79 m/s, 225° | - | - |
| 1778036756 | 22.22° C | 62% | 1009.9 hPa | 0 mm | 2.24 m/s, 225° | - | - |
| 1778036140 | 22.22° C | 62% | 1009.8 hPa | 0 mm | 2.24 m/s, 225° | - | - |
| 1778035538 | 22.22° C | 61% | 1009.8 hPa | 0 mm | 1.79 m/s, 225° | - | - |
| 1778034937 | 22.78° C | 61% | 1009.6 hPa | 0 mm | 2.68 m/s, 225° | - | - |
| 1778034338 | 22.22° C | 61% | 1009.6 hPa | 0 mm | 1.79 m/s, 225° | - | - |
| 1778033736 | 22.78° C | 62% | 1009.7 hPa | 0 mm | 1.79 m/s, 225° | - | - |
| 1778033136 | 22.78° C | 61% | 1009.9 hPa | 0 mm | 2.24 m/s, 225° | - | - |
| 1778032535 | 22.78° C | 61% | 1010 hPa | 0 mm | 1.79 m/s, 225° | - | - |
| 1778031957 | 22.78° C | 61% | 1009.8 hPa | 0 mm | 1.79 m/s, 225° | - | - |
| 1778031344 | 22.78° C | 62% | 1009.7 hPa | 0 mm | 4.02 m/s, 203° | - | - |
| 1778030749 | 22.78° C | 60% | 1009.6 hPa | 0 mm | 3.58 m/s, 225° | - | - |
* Rain latest hour (hover to see other rain measurements)
** Current wind speed in m/s (hover to see current wind gust speed)